User: anonymous   Login
Location: Newark
(49.4900°N, 20.6656°E)
Time: 06:20:50
(UTC+00:00)
Language:

STARLINK-1750 - Orbit

View from above orbital plane
View from above orbital plane
View from above satellite
View from above satellite

Ground track
Ground track

The orbit data is extracted from the following two-line orbital elements,

1 46337U 20062N   20339.66667824 -.01063065  00000-0 -57008-1 0  9999
2 46337  52.9972 340.5882 0001446  67.6435  42.4820 15.17184559 15221
Epoch (UTC): 04 December 2020 16:00:01
Eccentricity: 0.0001446
inclination: 52.9972°
perigee height: 513 km
apogee height: 515 km
right ascension of ascending node: 340.5882°
argument of perigee: 67.6435°
revolutions per day: 15.17184559
mean anomaly at epoch: 42.4820°
orbit number at epoch: 1522

The dashed part of the orbit path shows where the satellite is in the earth's shadow,  

DLR